Weather History for Moses Lake, WA

Change the Weather History Date:

Friday, September 27, 2013

  Actual Average Record
Temperature  
Mean Temperature 49 °F 57 °F  
Max Temperature 58 °F 73 °F 90 °F (2003)
Min Temperature 39 °F 42 °F 31 °F (1985)
Degree Days  
Heating Degree Days 16 8  
Month to date heating degree days 77 104  
Since 1 July heating degree days 77 124  
Cooling Degree Days 0 0  
Month to date cooling degree days 135 44  
Year to date cooling degree days 948 614  
Moisture  
Dew Point 42 °F    
Average Humidity 72    
Maximum Humidity 92    
Minimum Humidity 51    
Precipitation  
Precipitation 0.02 in 0.02 in 0.30 in (1981)
Month to date precipitation 0.82 0.32  
Year to date precipitation 5.13 5.75  
Sea Level Pressure  
Sea Level Pressure 29.99 in    
Wind  
Wind Speed 8 mph (South)    
Max Wind Speed 17 mph    
Max Gust Speed 21 mph    
Visibility 10 miles    
Events Rain    
T = Trace of Precipitation, MM = Missing Value Source: NWS Daily Summary

Daily Weather History Graph

Daily Weather History Graph

Search for Another Location

Airport:

Trip Planner

Search our weather history database for the weather conditions in past years. The results will help you decide how hot, cold, wet, or windy it might be!

Date:

Astronomy

Sep. 27, 2013 Rise Set
Actual Time 6:51 AM PDT 6:44 PM PDT
Civil Twilight 6:20 AM PDT 7:14 PM PDT
Nautical Twilight 5:45 AM PDT 7:50 PM PDT
Astronomical Twilight 5:08 AM PDT 8:26 PM PDT
Moon No Moon Rise 2:46 PM PDT (9/27)
Length of Visible Light 12h 53m
Length of Day
11h 52m
Last Quarter, 44% of the Moon is Illuminated
Sep 27
Last Quarter
Oct 4
New
Oct 11
First Quarter
Oct 18
Full
Oct 26
Last Quarter

Hourly Weather History & Observations

Time (PDT) Temp. Windchill Dew Point Humidity Pressure Visibility Wind Dir Wind Speed Gust Speed Precip Events Conditions
12:52 AM 51.1 °F - 35.1 °F 54% 30.04 in 10.0 mi Calm Calm - N/A   Clear
1:52 AM 48.0 °F - 41.0 °F 77% 30.03 in 10.0 mi WSW 3.5 mph - N/A   Clear
2:52 AM 44.1 °F - 37.0 °F 76% 30.02 in 10.0 mi Calm Calm - N/A   Clear
3:52 AM 43.0 °F - 37.0 °F 80% 30.02 in 10.0 mi Calm Calm - N/A   Clear
4:52 AM 42.1 °F - 37.9 °F 85% 30.02 in 10.0 mi Calm Calm - N/A   Clear
5:52 AM 41.0 °F 38.0 °F 37.0 °F 86% 30.01 in 10.0 mi SE 4.6 mph - N/A   Clear
6:52 AM 39.9 °F 35.8 °F 37.0 °F 89% 30.02 in 10.0 mi SE 5.8 mph - N/A   Clear
7:52 AM 46.0 °F 43.1 °F 39.0 °F 76% 30.03 in 10.0 mi SE 5.8 mph - N/A   Scattered Clouds
8:52 AM 48.0 °F - 41.0 °F 77% 30.03 in 10.0 mi ESE 5.8 mph - N/A   Overcast
9:52 AM 52.0 °F - 41.0 °F 66% 30.04 in 10.0 mi SW 6.9 mph - N/A   Overcast
10:52 AM 50.0 °F - 45.0 °F 83% 30.05 in 9.0 mi West 6.9 mph - 0.01 in Rain Light Rain
11:52 AM 53.1 °F - 45.0 °F 74% 30.04 in 10.0 mi SW 10.4 mph - 0.01 in   Overcast
12:52 PM 54.0 °F - 43.0 °F 66% 30.02 in 10.0 mi South 10.4 mph - 0.00 in   Overcast
1:52 PM 55.0 °F - 43.0 °F 64% 29.99 in 10.0 mi South 12.7 mph - N/A   Mostly Cloudy
2:52 PM 57.9 °F - 39.9 °F 51% 29.98 in 10.0 mi South 15.0 mph - N/A   Partly Cloudy
3:52 PM 55.9 °F - 44.1 °F 64% 29.96 in 10.0 mi South 11.5 mph - N/A   Overcast
4:52 PM 57.0 °F - 46.9 °F 69% 29.95 in 10.0 mi SSE 5.8 mph - 0.00 in   Overcast
5:52 PM 57.0 °F - 45.0 °F 64% 29.94 in 10.0 mi South 12.7 mph - N/A   Overcast
6:52 PM 54.0 °F - 46.0 °F 75% 30.09 in 10.0 mi SSE 11.5 mph - N/A   Mostly Cloudy
7:52 PM 52.0 °F - 46.9 °F 83% 29.94 in 10.0 mi South 12.7 mph - N/A   Partly Cloudy
8:52 PM 51.1 °F - 46.9 °F 86% 29.93 in 10.0 mi SSE 8.1 mph - N/A   Clear
9:52 PM 51.1 °F - 46.9 °F 86% 29.91 in 10.0 mi South 9.2 mph - N/A   Clear
10:52 PM 51.1 °F - 46.0 °F 83% 29.91 in 10.0 mi South 8.1 mph - N/A   Clear
11:52 PM 50.0 °F - 46.0 °F 86% 29.89 in 10.0 mi SE 8.1 mph - N/A   Overcast